Location: Caixon
(43.4106°N, 0.0273°E)
Time: 21:54:39
(UTC+00:00)

SL-16 R/B - Pass Details

Date: 16 October 2021
Orbit: 842 x 846 km, 71.0° (Epoch: 07 December)

Event Time Altitude Azimuth Distance (km) Brightness Sun altitude
Rises 04:51:50 0° 338° (NNW) 3,414 5.2 -15.9°
Reaches altitude 10° 04:54:21 10° 343° (NNW) 2,476 4.5 -15.4°
Maximum altitude 04:59:56 56° 61° (ENE) 1,004 2.9 -14.4°
Drops below altitude 10° 05:05:29 10° 139° (SE) 2,461 5.2 -13.4°
Sets 05:07:58 0° 144° (SE) 3,393 5.9 -12.9°
